LEOIR Weather Reports


time (UTC)temp
F
wind
direction
speed
knots
gust
knots
rain 1hr
in
rain 24hr
in
rain mn
in
humidity
%
barometer
mb
20260506231529 62 33 0.0 0.0 0.00 0.00 0.00 61 1004.5
20260506230026 63 33 0.0 0.0 0.00 0.00 0.00 60 1004.5
20260506224523 63 33 0.0 0.0 0.00 0.00 0.00 60 1004.6
20260506223021 63 33 0.0 0.0 0.00 0.00 0.00 59 1004.6
20260506221518 63 33 0.0 0.0 0.00 0.00 0.00 58 1004.6
20260506220023 64 33 0.0 0.0 0.00 0.00 0.00 56 1004.5
20260506214515 64 33 0.0 0.0 0.00 0.00 0.00 56 1004.5
20260506213018 65 33 0.0 0.0 0.00 0.00 0.00 55 1004.7
20260506211513 66 33 0.0 0.0 0.00 0.00 0.00 54 1004.5
20260506210012 67 33 0.0 0.0 0.00 0.00 0.00 53 1004.4
20260506204509 67 23 0.0 0.0 0.00 0.00 0.00 52 1004.3
20260506203019 67 75 0.0 0.0 0.00 0.00 0.00 52 1004.4
20260506201510 67 75 0.0 0.0 0.00 0.00 0.00 52 1004.3
20260506200007 68 75 0.0 0.0 0.00 0.00 0.00 51 1004.3
20260506194511 69 75 0.0 0.0 0.00 0.00 0.00 51 1004.3
20260506193006 69 75 0.0 0.0 0.00 0.00 0.00 49 1004.3
20260506191507 70 77 0.0 0.0 0.00 0.00 0.00 49 1004.3
20260506190008 71 77 0.0 0.0 0.00 0.00 0.00 48 1004.2
20260506184504 72 77 0.0 0.0 0.00 0.00 0.00 45 1004.0
20260506183004 73 77 0.0 0.0 0.00 0.00 0.00 44 1003.8
20260506181503 73 77 0.0 0.0 0.00 0.00 0.00 43 1003.8
20260506180007 74 80 0.0 0.0 0.00 0.00 0.00 41 1003.6
20260506174501 75 13 0.0 0.0 0.00 0.00 0.00 41 1003.6
20260506173000 76 20 0.0 0.0 0.00 0.00 0.00 40 1003.4
20260506171602 77 333 0.0 0.9 0.00 0.00 0.00 39 1003.3
20260506170100 78 4 0.0 1.7 0.00 0.00 0.00 38 1003.3
20260506164600 79 358 0.0 1.7 0.00 0.00 0.00 36 1003.3
20260506163059 80 15 0.0 1.7 0.00 0.00 0.00 35 1003.2
20260506161605 80 38 0.0 0.0 0.00 0.00 0.00 34 1003.3
20260506160058 80 78 0.0 2.6 0.00 0.00 0.00 34 1003.2
20260506154557 82 94 0.0 9.6 0.00 0.00 0.00 32 1003.2
20260506153056 83 75 0.0 3.5 0.00 0.00 0.00 31 1003.2
20260506151607 83 33 0.0 8.7 0.00 0.00 0.00 32 1003.1
20260506150052 83 29 0.0 0.9 0.00 0.00 0.00 32 1003.0
20260506144551 83 37 0.0 2.6 0.00 0.00 0.00 32 1003.0
20260506143054 82 306 0.0 2.6 0.00 0.00 0.00 33 1003.1
20260506141550 81 24 0.0 1.7 0.00 0.00 0.00 33 1003.1
20260506134548 82 58 0.0 2.6 0.00 0.00 0.00 33 1003.1
20260506133050 82 54 0.0 5.2 0.00 0.00 0.00 32 1003.0
20260506131552 83 16 0.0 0.9 0.00 0.00 0.00 31 1003.0
20260506130053 83 32 0.0 2.6 0.00 0.00 0.00 31 1002.9
20260506124542 83 27 0.0 5.2 0.00 0.00 0.00 32 1003.0
20260506123041 84 60 0.0 4.3 0.00 0.00 0.00 30 1003.2
20260506121541 83 287 0.0 4.3 0.00 0.00 0.00 31 1003.2
20260506120044 83 342 0.0 7.0 0.00 0.00 0.00 30 1003.2
20260506114542 83 72 0.0 3.5 0.00 0.00 0.00 29 1003.2
20260506113035 83 323 0.0 3.5 0.00 0.00 0.00 30 1003.1
20260506111535 82 318 0.0 4.3 0.00 0.00 0.00 29 1003.0
20260506110036 82 15 0.9 4.3 0.00 0.00 0.00 29 1003.2
20260506104528 81 352 0.9 5.2 0.00 0.00 0.00 30 1003.3
20260506103026 81 326 0.0 3.5 0.00 0.00 0.00 30 1003.3
20260506101542 81 27 0.0 7.8 0.00 0.00 0.00 31 1003.5
20260506100022 80 35 0.0 6.1 0.00 0.00 0.00 31 1003.5
20260506094521 79 316 0.0 8.7 0.00 0.00 0.00 32 1003.6
20260506093022 80 316 0.9 7.0 0.00 0.00 0.00 32 1003.5
20260506091521 80 80 0.0 2.6 0.00 0.00 0.00 31 1003.4
20260506090015 79 83 0.0 6.1 0.00 0.00 0.00 33 1003.3
20260506084518 78 52 0.0 6.1 0.00 0.00 0.00 33 1003.2
20260506083008 77 312 0.9 7.0 0.00 0.00 0.00 33 1003.4
20260506081508 77 81 0.0 3.5 0.00 0.00 0.00 34 1003.4
20260506073053 75 347 0.0 3.5 0.00 0.00 0.00 36 1003.5
20260506071604 74 14 0.9 5.2 0.00 0.00 0.00 37 1003.6
20260506061531 71 324 0.0 1.7 0.00 0.00 0.00 38 1003.6
20260506044502 62 13 0.0 0.0 0.00 0.00 0.00 45 1004.5
20260506043059 62 13 0.0 0.0 0.00 0.00 0.00 44 1004.5
20260506041605 62 13 0.0 0.0 0.00 0.00 0.00 44 1004.7
20260506040052 60 13 0.0 0.0 0.00 0.00 0.00 46 1004.8
20260506034548 58 13 0.0 0.0 0.00 0.00 0.00 48 1004.9
20260506033043 57 13 0.0 0.0 0.00 0.00 0.00 50 1004.9
20260506031540 56 13 0.0 0.0 0.00 0.00 0.00 50 1005.0
20260506030037 56 13 0.0 0.0 0.00 0.00 0.00 50 1005.1
20260506024540 56 13 0.0 0.0 0.00 0.00 0.00 51 1005.1
20260506023033 56 13 0.0 0.0 0.00 0.00 0.00 51 1005.1
20260506021532 57 13 0.0 0.0 0.00 0.00 0.00 50 1005.0
20260506020029 57 13 0.0 0.0 0.00 0.00 0.00 50 1005.0
20260506014541 57 13 0.0 0.0 0.00 0.00 0.00 49 1005.1
20260506013027 57 13 0.0 0.0 0.00 0.00 0.00 49 1005.0
20260506011520 57 13 0.0 0.0 0.00 0.00 0.00 49 1005.0
20260506010024 58 13 0.0 0.0 0.00 0.00 0.00 49 1004.9
20260506004519 58 13 0.0 0.0 0.00 0.00 0.00 48 1004.9
20260506003011 59 13 0.0 0.0 0.00 0.00 0.00 48 1004.9
20260506001509 59 13 0.0 0.0 0.00 0.00 0.00 47 1004.8
20260506000015 59 13 0.0 0.0 0.00 0.00 0.00 46 1004.8
20260505234513 59 13 0.0 0.0 0.00 0.00 0.00 46 1004.8
20260505233001 60 13 0.0 0.0 0.00 0.00 0.00 45 1004.8